BAW762 EGLL-ESSA

Flight info

Callsign BAW762
Flight time N/A
Altitude 35000
Route BPK6J BPK Q295 SOMVA DCT MAVAS DCT ANDIK N873 JUIST DCT DOSUR DCT MIKNA N851 PELUP Z226 NILUG NILUG3T
Aircraft A320/M-SDE3FGHIJ1RWXY/S

Departure

Time 2026-05-04 12:49
Airport London Heathrow Airport (EGLL)

Arrival

Time N/A
Airport Stockholm-Arlanda Airport (ESSA)
Time Latitude Longitude Altitude Speed Heading
2026-05-04 11:58 51.47406 -0.48830 85 ft 0 kts 180°
2026-05-04 12:06 51.47407 -0.48830 112 ft 0 kts 180°
2026-05-04 12:31 51.47408 -0.48830 85 ft 0 kts 180°
2026-05-04 12:36 51.47419 -0.48831 89 ft 4 kts 178°
2026-05-04 12:36 51.47446 -0.48834 88 ft 4 kts 171°
2026-05-04 12:37 51.47472 -0.48844 89 ft 4 kts 150°
2026-05-04 12:37 51.47487 -0.48869 87 ft 2 kts 97°
2026-05-04 12:37 51.47488 -0.48873 87 ft 1 kts 95°
2026-05-04 12:39 51.47487 -0.48872 85 ft 1 kts 95°
2026-05-04 12:39 51.47485 -0.48810 87 ft 11 kts 92°
2026-05-04 12:40 51.47484 -0.48674 86 ft 13 kts 89°
2026-05-04 12:40 51.47486 -0.48531 86 ft 13 kts 97°
2026-05-04 12:40 51.47417 -0.48473 86 ft 12 kts 179°
2026-05-04 12:40 51.47330 -0.48469 87 ft 12 kts 178°
2026-05-04 12:41 51.47244 -0.48469 87 ft 13 kts 180°
2026-05-04 12:41 51.47136 -0.48474 85 ft 16 kts 181°
2026-05-04 12:41 51.47023 -0.48475 85 ft 16 kts 180°
2026-05-04 12:41 51.46909 -0.48472 87 ft 16 kts 176°
2026-05-04 12:42 51.46794 -0.48470 85 ft 16 kts 180°
2026-05-04 12:42 51.46681 -0.48462 88 ft 15 kts 157°
2026-05-04 12:42 51.46651 -0.48326 87 ft 14 kts 87°
2026-05-04 12:42 51.46654 -0.48157 86 ft 16 kts 88°
2026-05-04 12:43 51.46657 -0.47962 87 ft 19 kts 90°
2026-05-04 12:43 51.46657 -0.47730 84 ft 22 kts 90°
2026-05-04 12:43 51.46657 -0.47491 80 ft 20 kts 89°
2026-05-04 12:43 51.46659 -0.47267 86 ft 20 kts 90°
2026-05-04 12:44 51.46659 -0.47042 89 ft 19 kts 89°
2026-05-04 12:44 51.46661 -0.46837 88 ft 17 kts 89°
2026-05-04 12:44 51.46661 -0.46640 89 ft 19 kts 90°
2026-05-04 12:44 51.46663 -0.46419 88 ft 21 kts 89°
2026-05-04 12:45 51.46662 -0.46169 84 ft 24 kts 90°
2026-05-04 12:45 51.46662 -0.46134 84 ft 0 kts 90°
2026-05-04 12:45 51.46661 -0.46046 82 ft 17 kts 91°
2026-05-04 12:46 51.46658 -0.45832 85 ft 21 kts 90°
2026-05-04 12:46 51.46663 -0.45586 81 ft 23 kts 88°
2026-05-04 12:46 51.46667 -0.45326 85 ft 23 kts 89°
2026-05-04 12:46 51.46668 -0.45061 88 ft 24 kts 90°
2026-05-04 12:47 51.46670 -0.44783 90 ft 26 kts 89°
2026-05-04 12:47 51.46672 -0.44477 86 ft 29 kts 89°
2026-05-04 12:47 51.46673 -0.44163 86 ft 30 kts 91°
2026-05-04 12:47 51.46671 -0.43996 82 ft 4 kts 91°
2026-05-04 12:48 51.46667 -0.43838 82 ft 23 kts 91°
2026-05-04 12:48 51.46622 -0.43612 85 ft 22 kts 161°
2026-05-04 12:48 51.46498 -0.43693 85 ft 23 kts 257°
2026-05-04 12:48 51.46490 -0.44168 83 ft 74 kts 270°
2026-05-04 12:49 51.46490 -0.45299 86 ft 126 kts 269°
2026-05-04 12:49 51.46489 -0.46926 87 ft 165 kts 270°
2026-05-04 12:49 51.46464 -0.48838 546 ft 167 kts 269°
2026-05-04 12:49 51.46524 -0.50680 1134 ft 165 kts 288°
2026-05-04 12:50 51.47000 -0.52415 1492 ft 180 kts 299°
2026-05-04 12:50 51.47610 -0.54305 1773 ft 202 kts 298°
2026-05-04 12:50 51.48297 -0.56429 2089 ft 227 kts 298°
2026-05-04 12:50 51.49062 -0.58807 2523 ft 251 kts 298°
2026-05-04 12:51 51.49881 -0.61363 3246 ft 261 kts 298°
2026-05-04 12:51 51.50860 -0.63775 4046 ft 265 kts 318°
2026-05-04 12:51 51.52500 -0.65097 4860 ft 269 kts 349°
2026-05-04 12:51 51.54384 -0.65281 5673 ft 273 kts
2026-05-04 12:52 51.56189 -0.64317 6417 ft 280 kts 34°
2026-05-04 12:52 51.57575 -0.62108 7138 ft 284 kts 55°
2026-05-04 12:52 51.58701 -0.59462 7914 ft 288 kts 55°
2026-05-04 12:52 51.59893 -0.56838 8678 ft 293 kts 53°
2026-05-04 12:53 51.61132 -0.54210 9450 ft 296 kts 52°
2026-05-04 12:53 51.62356 -0.51519 10160 ft 300 kts 59°
2026-05-04 12:53 51.63371 -0.48477 10441 ft 320 kts 63°
2026-05-04 12:53 51.64415 -0.45169 10576 ft 342 kts 64°
2026-05-04 12:54 51.65492 -0.41681 10863 ft 359 kts 64°
2026-05-04 12:54 51.66605 -0.38040 11405 ft 365 kts 64°
2026-05-04 12:54 51.67730 -0.34351 12019 ft 368 kts 64°
2026-05-04 12:54 51.68836 -0.30727 12617 ft 372 kts 64°
2026-05-04 12:55 51.69987 -0.26957 13255 ft 375 kts 64°
2026-05-04 12:55 51.71146 -0.23166 13877 ft 379 kts 64°
2026-05-04 12:55 51.72313 -0.19359 14436 ft 382 kts 64°
2026-05-04 12:55 51.73495 -0.15500 14997 ft 384 kts 64°
2026-05-04 12:56 51.74585 -0.11551 15537 ft 386 kts 72°
2026-05-04 12:56 51.75254 -0.07357 16068 ft 387 kts 82°
2026-05-04 12:56 51.75623 -0.03037 16633 ft 389 kts 84°
2026-05-04 12:56 51.75982 0.01303 17175 ft 391 kts 84°
2026-05-04 12:57 51.76220 0.04193 17547 ft 393 kts 84°
2026-05-04 12:57 51.76582 0.08578 18130 ft 396 kts 84°
2026-05-04 12:57 51.77063 0.14465 18838 ft 400 kts 84°
2026-05-04 12:57 51.77429 0.18934 19343 ft 403 kts 84°
2026-05-04 12:58 51.77801 0.23450 19865 ft 406 kts 84°
2026-05-04 12:58 51.78051 0.26518 20211 ft 409 kts 84°
2026-05-04 12:58 51.78420 0.31086 20697 ft 412 kts 84°
2026-05-04 12:58 51.78784 0.35626 21152 ft 415 kts 84°
2026-05-04 12:59 51.79153 0.40270 21601 ft 418 kts 84°
2026-05-04 12:59 51.79522 0.44944 22030 ft 421 kts 84°
2026-05-04 12:59 51.79893 0.49658 22441 ft 424 kts 84°
2026-05-04 12:59 51.80263 0.54402 22814 ft 428 kts 84°
2026-05-04 13:00 51.80640 0.59216 23207 ft 431 kts 84°
2026-05-04 13:00 51.81118 0.64024 23596 ft 435 kts 78°
2026-05-04 13:00 51.82032 0.68706 23933 ft 439 kts 69°
2026-05-04 13:00 51.83225 0.73258 24261 ft 442 kts 68°
2026-05-04 13:01 51.84422 0.77856 24586 ft 444 kts 68°
2026-05-04 13:01 51.85614 0.82476 24903 ft 446 kts 68°
2026-05-04 13:01 51.86793 0.87069 25208 ft 449 kts 69°
2026-05-04 13:01 51.87991 0.91742 25514 ft 451 kts 69°
2026-05-04 13:02 51.89197 0.96451 25821 ft 453 kts 69°
2026-05-04 13:02 51.90410 1.01191 26069 ft 457 kts 69°
2026-05-04 13:02 51.91631 1.05960 26340 ft 460 kts 69°
2026-05-04 13:02 51.92861 1.10770 26641 ft 463 kts 69°
2026-05-04 13:03 51.94097 1.15607 26948 ft 465 kts 69°
2026-05-04 13:03 51.95335 1.20471 27252 ft 467 kts 69°
2026-05-04 13:03 51.96573 1.25342 27659 ft 467 kts 69°
2026-05-04 13:03 51.97804 1.30199 28107 ft 466 kts 69°
2026-05-04 13:04 51.99034 1.35063 28537 ft 465 kts 69°
2026-05-04 13:04 52.00257 1.39916 28976 ft 464 kts 69°
2026-05-04 13:04 52.01478 1.44773 29406 ft 464 kts 69°
2026-05-04 13:04 52.02694 1.49619 29821 ft 463 kts 70°
2026-05-04 13:05 52.03906 1.54461 30228 ft 463 kts 69°
2026-05-04 13:05 52.05115 1.59312 30571 ft 463 kts 69°
2026-05-04 13:05 52.06321 1.64161 30930 ft 463 kts 70°
2026-05-04 13:05 52.07525 1.69008 31304 ft 462 kts 70°
2026-05-04 13:06 52.08731 1.73859 31683 ft 462 kts 70°
2026-05-04 13:06 52.09933 1.78699 32069 ft 461 kts 70°
2026-05-04 13:06 52.11130 1.83533 32451 ft 461 kts 70°
2026-05-04 13:06 52.12323 1.88366 32838 ft 460 kts 70°
2026-05-04 13:07 52.13511 1.93196 33211 ft 459 kts 70°
2026-05-04 13:07 52.14693 1.98021 33573 ft 459 kts 70°
2026-05-04 13:07 52.15876 2.02856 33860 ft 460 kts 70°
2026-05-04 13:07 52.17045 2.07638 34148 ft 461 kts 70°
2026-05-04 13:08 52.18230 2.12487 34432 ft 460 kts 70°
2026-05-04 13:08 52.19412 2.17342 34728 ft 460 kts 70°
2026-05-04 13:08 52.20587 2.22181 34966 ft 460 kts 70°
2026-05-04 13:09 52.22952 2.31971 35030 ft 470 kts 70°
2026-05-04 13:09 52.25354 2.41956 35026 ft 474 kts 70°
2026-05-04 13:10 52.27759 2.51980 35025 ft 475 kts 70°
2026-05-04 13:10 52.30157 2.62044 35025 ft 476 kts 70°
2026-05-04 13:11 52.32119 2.72289 35028 ft 475 kts 76°
2026-05-04 13:11 52.33952 2.82667 35026 ft 475 kts 76°
2026-05-04 13:12 52.35773 2.93053 35029 ft 475 kts 76°
2026-05-04 13:12 52.37588 3.03444 35006 ft 475 kts 76°
2026-05-04 13:13 52.39391 3.13887 34999 ft 477 kts 76°
2026-05-04 13:13 52.41192 3.24359 35001 ft 478 kts 77°
2026-05-04 13:14 52.42984 3.34852 35011 ft 479 kts 77°
2026-05-04 13:14 52.44764 3.45373 35011 ft 479 kts 77°
2026-05-04 13:15 52.46529 3.55839 34999 ft 480 kts 77°
2026-05-04 13:15 52.48311 3.66410 35010 ft 481 kts 76°
2026-05-04 13:16 52.50077 3.77025 35011 ft 482 kts 77°
2026-05-04 13:16 52.51827 3.87631 35016 ft 482 kts 77°
2026-05-04 13:17 52.53589 3.98284 35020 ft 482 kts 77°
2026-05-04 13:17 52.55342 4.08926 34990 ft 483 kts 77°
2026-05-04 13:18 52.57085 4.19609 34985 ft 485 kts 77°
2026-05-04 13:18 52.58803 4.30259 34990 ft 485 kts 77°
2026-05-04 13:19 52.60522 4.40997 34994 ft 486 kts 77°
2026-05-04 13:19 52.62235 4.51749 34998 ft 486 kts 77°
2026-05-04 13:20 52.63947 4.62510 35000 ft 486 kts 77°
2026-05-04 13:20 52.65646 4.73277 35002 ft 486 kts 77°
2026-05-04 13:21 52.67335 4.84062 35028 ft 486 kts 77°
2026-05-04 13:21 52.69006 4.94837 35026 ft 485 kts 77°
2026-05-04 13:22 52.70669 5.05617 34994 ft 485 kts 77°
2026-05-04 13:22 52.72321 5.16414 34989 ft 486 kts 77°
2026-05-04 13:23 52.74490 5.26893 34986 ft 488 kts 63°
2026-05-04 13:23 52.78267 5.36165 34987 ft 488 kts 51°
2026-05-04 13:24 52.82455 5.45015 34986 ft 488 kts 51°
2026-05-04 13:24 52.86619 5.53899 34992 ft 489 kts 52°
2026-05-04 13:25 52.92865 5.67261 35005 ft 489 kts 51°
2026-05-04 13:25 52.97028 5.76214 35012 ft 490 kts 51°
2026-05-04 13:26 53.01181 5.85178 35020 ft 490 kts 51°
2026-05-04 13:26 53.05333 5.94143 35018 ft 490 kts 51°
2026-05-04 13:27 53.09451 6.03091 35020 ft 490 kts 52°
2026-05-04 13:27 53.13567 6.12060 35047 ft 489 kts 52°
2026-05-04 13:28 53.17687 6.21070 35010 ft 489 kts 52°
2026-05-04 13:28 53.21804 6.30106 35009 ft 490 kts 52°
2026-05-04 13:29 53.25921 6.39190 35001 ft 489 kts 52°
2026-05-04 13:29 53.30028 6.48276 35010 ft 490 kts 52°
2026-05-04 13:30 53.34151 6.57347 35023 ft 490 kts 49°
2026-05-04 13:30 53.38993 6.65301 35017 ft 488 kts 40°
2026-05-04 13:31 53.43970 6.72941 35006 ft 488 kts 40°
2026-05-04 13:31 53.48967 6.80656 35005 ft 488 kts 40°
2026-05-04 13:32 53.53966 6.88408 35015 ft 489 kts 40°
2026-05-04 13:32 53.58926 6.96252 35037 ft 489 kts 42°
2026-05-04 13:33 53.63748 7.04365 35033 ft 489 kts 44°
2026-05-04 13:33 53.68488 7.12507 35044 ft 489 kts 43°
2026-05-04 13:34 53.73276 7.20662 35046 ft 489 kts 43°
2026-05-04 13:34 53.78084 7.28793 35059 ft 489 kts 43°
2026-05-04 13:35 53.85276 7.41020 35051 ft 488 kts 43°
2026-05-04 13:36 53.90064 7.49228 35045 ft 488 kts 43°
2026-05-04 13:36 53.94808 7.57369 35047 ft 489 kts 43°
2026-05-04 13:37 53.99592 7.65601 35044 ft 489 kts 43°
2026-05-04 13:37 54.04356 7.73836 35064 ft 488 kts 43°
2026-05-04 13:38 54.09099 7.82078 35059 ft 487 kts 43°
2026-05-04 13:38 54.13839 7.90319 35052 ft 486 kts 44°
2026-05-04 13:39 54.18565 7.98582 35043 ft 486 kts 44°
2026-05-04 13:39 54.23292 8.06883 35057 ft 487 kts 43°
2026-05-04 13:40 54.27982 8.15131 35054 ft 487 kts 44°
2026-05-04 13:40 54.32665 8.23400 35053 ft 486 kts 44°
2026-05-04 13:41 54.37362 8.31728 35050 ft 486 kts 44°
2026-05-04 13:41 54.42057 8.40079 35044 ft 486 kts 44°
2026-05-04 13:42 54.49090 8.52615 35054 ft 484 kts 44°
2026-05-04 13:42 54.53733 8.60953 35048 ft 482 kts 44°
2026-05-04 13:43 54.58363 8.69304 35024 ft 482 kts 44°
2026-05-04 13:43 54.62971 8.77633 35017 ft 483 kts 44°
2026-05-04 13:44 54.67612 8.86047 35010 ft 484 kts 44°
2026-05-04 13:44 54.72249 8.94469 35038 ft 483 kts 44°
2026-05-04 13:45 54.76866 9.02890 35034 ft 482 kts 44°
2026-05-04 13:45 54.80695 9.09891 35027 ft 481 kts 44°
2026-05-04 13:46 54.85285 9.18340 35014 ft 481 kts 44°
2026-05-04 13:46 54.90471 9.28178 35010 ft 480 kts 46°
2026-05-04 13:47 54.94170 9.35392 35021 ft 480 kts 46°
2026-05-04 13:47 54.98608 9.44077 35016 ft 480 kts 46°
2026-05-04 13:48 55.03058 9.52754 35014 ft 479 kts 46°
2026-05-04 13:48 55.07506 9.61426 35014 ft 480 kts 46°
2026-05-04 13:49 55.11938 9.70139 35010 ft 480 kts 46°
2026-05-04 13:49 55.16341 9.78811 35021 ft 479 kts 46°
2026-05-04 13:50 55.20760 9.87537 35010 ft 478 kts 46°
2026-05-04 13:50 55.25161 9.96267 34993 ft 478 kts 46°
2026-05-04 13:51 55.29563 10.05038 34963 ft 479 kts 46°
2026-05-04 13:51 55.33962 10.13837 34957 ft 480 kts 46°
2026-05-04 13:52 55.40524 10.27016 34977 ft 479 kts 46°
2026-05-04 13:53 55.44917 10.35852 34994 ft 479 kts 46°
2026-05-04 13:53 55.49292 10.44713 34992 ft 478 kts 46°